When you browse on this site, cookies collect data to enhance your experience and personalize the content and advertising you see.
Visit our Privacy Policy to learn more. By continuing to use the site, you agree to this use of cookies and data.
  • în România
  • Lista ţărilor
  • Pe 7 zile
  • Temperatura apei
  • Meteo pe hartă
  • Widget-uri
  • user-avatar
    Intrare

    Meteo pe oră la Vejle

    Astăzi, 21 Octombrie, Luni

    Timp Temperatura Precipitaţii Vânt Presiune Umiditate
    00:00 +10°C° 0 mm 1 m/s 754 mmHg 92%
    01:00 +9°C° 0 mm 2 m/s 754 mmHg 92%
    02:00 +9°C° 0 mm 2 m/s 754 mmHg 93%
    03:00 +8°C° 0 mm 2 m/s 754 mmHg 93%
    04:00 +8°C° 0 mm 2 m/s 754 mmHg 93%
    05:00 +8°C° 0 mm 2 m/s 755 mmHg 93%
    06:00 +8°C° 0 mm 3 m/s 755 mmHg 94%
    07:00 +8°C° 0 mm 3 m/s 756 mmHg 94%
    08:00 +9°C° 0 mm 3 m/s 756 mmHg 92%
    09:00 +10°C° 0 mm 4 m/s 756 mmHg 89%
    10:00 +11°C° 0 mm 4 m/s 756 mmHg 86%
    11:00 +12°C° 0.1 mm 4 m/s 756 mmHg 86%
    12:00 +12°C° 0.1 mm 4 m/s 756 mmHg 86%
    13:00 +12°C° 0.1 mm 4 m/s 756 mmHg 86%
    14:00 +11°C° 0.8 mm 4 m/s 756 mmHg 89%
    15:00 +11°C° 0.8 mm 4 m/s 755 mmHg 92%
    16:00 +11°C° 0.8 mm 4 m/s 755 mmHg 94%
    17:00 +11°C° 0.5 mm 3 m/s 755 mmHg 95%
    18:00 +11°C° 0.5 mm 3 m/s 755 mmHg 96%
    19:00 +12°C° 0.5 mm 2 m/s 755 mmHg 97%
    20:00 +11°C° 0 mm 3 m/s 755 mmHg 97%
    21:00 +12°C° 0 mm 3 m/s 755 mmHg 97%
    22:00 +12°C° 0 mm 4 m/s 754 mmHg 96%
    23:00 +12°C° 0 mm 4 m/s 755 mmHg 95%

    Mâine, 22 Octombrie, Marţi

    Timp Temperatura Precipitaţii Vânt Presiune Umiditate
    00:00 +11°C° 0 mm 4 m/s 755 mmHg 93%
    01:00 +11°C° 0 mm 4 m/s 755 mmHg 92%
    02:00 +10°C° 0 mm 5 m/s 755 mmHg 92%
    03:00 +10°C° 0 mm 5 m/s 754 mmHg 92%
    04:00 +9°C° 0 mm 5 m/s 754 mmHg 92%
    05:00 +9°C° 0 mm 5 m/s 754 mmHg 93%
    06:00 +9°C° 0 mm 5 m/s 754 mmHg 94%
    07:00 +9°C° 0 mm 5 m/s 754 mmHg 96%
    08:00 +10°C° 0 mm 5 m/s 755 mmHg 92%
    09:00 +12°C° 0 mm 5 m/s 755 mmHg 89%
    10:00 +13°C° 0 mm 5 m/s 755 mmHg 86%
    11:00 +11°C° 0.2 mm 6 m/s 756 mmHg 86%
    12:00 +11°C° 0.2 mm 7 m/s 756 mmHg 85%
    13:00 +11°C° 0.2 mm 7 m/s 757 mmHg 84%
    14:00 +11°C° 0 mm 7 m/s 757 mmHg 82%
    15:00 +10°C° 0 mm 7 m/s 757 mmHg 80%
    16:00 +9°C° 0 mm 6 m/s 757 mmHg 78%
    17:00 +9°C° 0 mm 6 m/s 757 mmHg 79%
    18:00 +8°C° 0 mm 5 m/s 757 mmHg 81%
    19:00 +8°C° 0 mm 5 m/s 758 mmHg 82%
    20:00 +8°C° 0 mm 5 m/s 758 mmHg 83%
    21:00 +8°C° 0 mm 5 m/s 758 mmHg 84%
    22:00 +8°C° 0 mm 5 m/s 758 mmHg 85%
    23:00 +8°C° 0 mm 5 m/s 758 mmHg 84%

    Poimâine, 23 Octombrie, Miercuri

    Timp Temperatura Precipitaţii Vânt Presiune Umiditate
    00:00 +7°C° 0 mm 4 m/s 758 mmHg 84%
    01:00 +7°C° 0 mm 4 m/s 758 mmHg 84%
    02:00 +7°C° 0 mm 4 m/s 758 mmHg 85%
    03:00 +7°C° 0 mm 4 m/s 757 mmHg 86%
    04:00 +7°C° 0 mm 4 m/s 757 mmHg 88%
    05:00 +7°C° 0 mm 4 m/s 757 mmHg 89%
    06:00 +7°C° 0 mm 3 m/s 757 mmHg 90%
    07:00 +7°C° 0 mm 3 m/s 757 mmHg 91%
    08:00 +8°C° 0 mm 3 m/s 757 mmHg 87%
    09:00 +8°C° 0 mm 4 m/s 757 mmHg 82%
    10:00 +10°C° 0 mm 4 m/s 757 mmHg 78%
    11:00 +11°C° 0 mm 4 m/s 757 mmHg 77%
    12:00 +11°C° 0 mm 4 m/s 757 mmHg 76%
    13:00 +11°C° 0 mm 3 m/s 757 mmHg 76%
    14:00 +11°C° 0 mm 3 m/s 756 mmHg 77%
    15:00 +11°C° 0 mm 3 m/s 756 mmHg 79%
    16:00 +10°C° 0 mm 2 m/s 755 mmHg 81%
    17:00 +10°C° 0 mm 3 m/s 755 mmHg 83%
    18:00 +9°C° 0 mm 3 m/s 754 mmHg 85%
    19:00 +8°C° 0 mm 4 m/s 754 mmHg 87%
    20:00 +8°C° 0 mm 4 m/s 754 mmHg 88%
    21:00 +8°C° 0 mm 5 m/s 753 mmHg 89%
    22:00 +9°C° 0 mm 5 m/s 753 mmHg 90%
    23:00 +9°C° 0 mm 5 m/s 752 mmHg 91%

    24 Octombrie, Joi

    Timp Temperatura Precipitaţii Vânt Presiune Umiditate
    00:00 +9°C° 0 mm 5 m/s 752 mmHg 91%
    01:00 +9°C° 0 mm 5 m/s 751 mmHg 91%
    02:00 +9°C° 0 mm 5 m/s 751 mmHg 92%
    03:00 +10°C° 0 mm 4 m/s 750 mmHg 93%
    04:00 +10°C° 0 mm 4 m/s 750 mmHg 94%
    05:00 +10°C° 0 mm 4 m/s 749 mmHg 94%
    06:00 +10°C° 0 mm 4 m/s 749 mmHg 94%
    07:00 +9°C° 0 mm 5 m/s 749 mmHg 94%
    08:00 +10°C° 0 mm 5 m/s 749 mmHg 92%
    09:00 +10°C° 0 mm 5 m/s 748 mmHg 90%
    10:00 +12°C° 0 mm 5 m/s 748 mmHg 88%
    11:00 +13°C° 0 mm 5 m/s 748 mmHg 86%
    12:00 +14°C° 0 mm 5 m/s 748 mmHg 85%
    13:00 +14°C° 0 mm 5 m/s 748 mmHg 83%
    14:00 +14°C° 0 mm 4 m/s 748 mmHg 85%
    15:00 +14°C° 0 mm 4 m/s 748 mmHg 87%
    16:00 +13°C° 0 mm 3 m/s 748 mmHg 89%
    17:00 +13°C° 0 mm 3 m/s 747 mmHg 91%
    18:00 +12°C° 0 mm 3 m/s 747 mmHg 94%
    19:00 +11°C° 0 mm 3 m/s 747 mmHg 96%
    20:00 +12°C° 0 mm 3 m/s 747 mmHg 96%
    21:00 +12°C° 0 mm 4 m/s 748 mmHg 96%
    22:00 +12°C° 0 mm 4 m/s 748 mmHg 96%
    23:00 +12°C° 0 mm 4 m/s 748 mmHg 96%

    25 Octombrie, Vineri

    Timp Temperatura Precipitaţii Vânt Presiune Umiditate
    00:00 +12°C° 0 mm 5 m/s 748 mmHg 95%
    01:00 +12°C° 0 mm 5 m/s 748 mmHg 95%
    02:00 +12°C° 0 mm 5 m/s 749 mmHg 93%
    03:00 +12°C° 0 mm 4 m/s 749 mmHg 92%
    04:00 +11°C° 0 mm 4 m/s 749 mmHg 90%
    05:00 +11°C° 0 mm 4 m/s 750 mmHg 90%
    06:00 +10°C° 0 mm 4 m/s 750 mmHg 89%
    07:00 +10°C° 0 mm 4 m/s 751 mmHg 89%
    08:00 +10°C° 0 mm 4 m/s 751 mmHg 85%
    09:00 +11°C° 0 mm 4 m/s 752 mmHg 81%
    10:00 +11°C° 0 mm 4 m/s 753 mmHg 76%
    11:00 +12°C° 0 mm 4 m/s 753 mmHg 74%
    12:00 +12°C° 0 mm 4 m/s 753 mmHg 72%
    13:00 +12°C° 0 mm 4 m/s 753 mmHg 70%
    14:00 +12°C° 0.1 mm 4 m/s 753 mmHg 74%
    15:00 +12°C° 0.1 mm 4 m/s 753 mmHg 79%
    16:00 +11°C° 0.1 mm 4 m/s 753 mmHg 83%
    17:00 +10°C° 0.2 mm 5 m/s 752 mmHg 85%
    18:00 +10°C° 0.2 mm 5 m/s 752 mmHg 87%
    19:00 +10°C° 0.2 mm 6 m/s 752 mmHg 89%
    20:00 +10°C° 0.3 mm 6 m/s 751 mmHg 89%
    21:00 +10°C° 0.3 mm 6 m/s 751 mmHg 90%
    22:00 +10°C° 0.3 mm 7 m/s 750 mmHg 90%
    23:00 +10°C° 0.5 mm 7 m/s 749 mmHg 88%

    26 Octombrie, Sâmbătă

    Timp Temperatura Precipitaţii Vânt Presiune Umiditate
    00:00 +10°C° 0.5 mm 8 m/s 748 mmHg 86%
    01:00 +10°C° 0.5 mm 9 m/s 747 mmHg 84%
    02:00 +9°C° 2 mm 10 m/s 746 mmHg 85%
    03:00 +9°C° 2 mm 12 m/s 744 mmHg 86%
    04:00 +9°C° 2 mm 13 m/s 743 mmHg 87%
    05:00 +9°C° 0.2 mm 12 m/s 743 mmHg 83%
    06:00 +9°C° 0.2 mm 11 m/s 743 mmHg 80%
    07:00 +9°C° 0.2 mm 10 m/s 744 mmHg 77%
    08:00 +8°C° 0.1 mm 10 m/s 745 mmHg 76%
    09:00 +8°C° 0.1 mm 10 m/s 747 mmHg 75%
    10:00 +7°C° 0.1 mm 9 m/s 748 mmHg 73%
    11:00 +7°C° 0.1 mm 9 m/s 749 mmHg 69%
    12:00 +7°C° 0.1 mm 10 m/s 750 mmHg 66%
    13:00 +7°C° 0.1 mm 10 m/s 751 mmHg 62%
    14:00 +7°C° 0 mm 9 m/s 751 mmHg 63%
    15:00 +6°C° 0 mm 8 m/s 751 mmHg 64%
    16:00 +6°C° 0 mm 7 m/s 752 mmHg 65%
    17:00 +5°C° 0 mm 7 m/s 752 mmHg 67%
    18:00 +5°C° 0 mm 6 m/s 753 mmHg 70%
    19:00 +4°C° 0 mm 6 m/s 753 mmHg 72%
    20:00 +4°C° 0 mm 6 m/s 754 mmHg 72%
    21:00 +4°C° 0 mm 6 m/s 754 mmHg 72%
    22:00 +4°C° 0 mm 6 m/s 755 mmHg 71%
    23:00 +5°C° 0 mm 5 m/s 755 mmHg 72%
    Arată mai mult